Simultaneous Nadir Overpasses (SNOs) Predictions

Prediction of SNOs between METOP-B and NOAA-19 Satellite Orbit:

Table of predicted SNOs for the next 14.0 days since TLE Epoch: 4/5/2025
Index Date (METOP-B) Time (METOP-B) Lat,Lon (METOP-B) SZA (METOP-B ) Date (NOAA-19) Time (NOAA-19) Lat,Lon (NOAA-19) SZA (NOAA-19 ) Distance(km) Time Diff (sec)
1 04/05/2025 07:18:39 80.79, 140.01 80.56 04/05/2025 07:17:44 80.79, 140.05 80.53 0.79 55
2 04/05/2025 08:09:19 -80.78, -52.59 99.45 04/05/2025 08:08:37 -80.79, -52.74 99.49 2.69 42
3 04/05/2025 09:00:00 80.77, 114.91 80.57 04/05/2025 08:59:40 80.78, 114.80 80.54 1.96 20
4 04/05/2025 09:50:40 -80.77, -77.69 99.44 04/05/2025 09:50:32 -80.76, -77.63 99.44 1.13 8
5 04/05/2025 10:41:21 80.76, 89.80 80.57 04/05/2025 10:41:35 80.75, 89.91 80.60 1.89 14
6 04/05/2025 11:32:01 -80.75,-102.80 99.44 04/05/2025 11:32:28 -80.76,-102.89 99.43 1.64 27
7 04/05/2025 12:22:42 80.74, 64.70 80.58 04/05/2025 12:23:31 80.74, 64.65 80.60 0.86 49
8 04/05/2025 13:13:22 -80.74,-127.90 99.43 04/05/2025 13:14:23 -80.73,-127.79 99.38 2.17 61
9 04/17/2025 14:06:09 -80.90,-143.82 104.02 04/17/2025 14:04:53 -80.87,-143.80 104.07 3.56 76
10 04/17/2025 14:56:46 80.81, 24.96 76.16 04/17/2025 14:55:52 80.82, 24.96 76.13 0.51 54
11 04/17/2025 15:47:27 -80.82,-167.88 103.88 04/17/2025 15:46:46 -80.82,-167.97 103.92 1.58 41
12 04/17/2025 16:38:07 80.80, -0.16 76.17 04/17/2025 16:37:48 80.81, -0.31 76.13 3.05 19
13 04/17/2025 17:28:48 -80.81, 167.00 103.87 04/17/2025 17:28:41 -80.80, 167.12 103.86 2.22 7
14 04/17/2025 18:19:29 80.80, -25.62 76.13 04/17/2025 18:19:44 80.80, -25.58 76.14 0.81 15
15 04/17/2025 19:10:09 -80.79, 141.88 103.87 04/17/2025 19:10:37 -80.79, 141.85 103.85 0.57 28
16 04/17/2025 20:00:50 80.79, -50.73 76.13 04/17/2025 20:01:40 80.79, -50.85 76.15 2.11 50



Historial Predications of SNOs between METOP-B and NOAA-19
